[[{"header":{"parameterUnit":"m.s-1","parameterCategory":1,"la1":30.2992,"la2":30.254,"lo1":-89.0895,"lo2":-89.0443,"dy":0.0025,"dx":0.0025,"nx":19,"ny":19,"refTime":"2026-03-13T09:00:00:Z","depth":0,"parameterNumber":2,"parameterNumberName":"U-component_of_WINDS"},"data":[0,0,0,-0.5563,-0.5564,-0.5618,-0.5618,-0.5687,-0.5687,0,0,0,0,0,0,0,0,0,0,0,-0.5545,-0.5545,-0.5563,-0.5564,-0.5618,-0.5618,-0.5686,-0.5687,0,0,0,0,0,0,0,0,0,0,0,-0.5545,-0.5545,-0.5546,-0.5564,-0.5618,-0.5618,-0.5686,-0.5646,0,0,0,0,0,0,0,0,0,0,-0.5594,-0.5575,-0.5545,-0.5546,-0.5565,-0.5618,-0.5618,-0.5644,-0.5649,-0.5661,0,-0.5671,0,-0.568,-0.5691,-0.5692,0,0,0,-0.5566,-0.5572,-0.5588,-0.5546,-0.5565,-0.5618,-0.5594,-0.5647,-0.5652,-0.5667,-0.5672,-0.5674,-0.5681,-0.5692,-0.5692,-0.5757,-0.5757,0,0,-0.5563,-0.5554,-0.5584,-0.5591,-0.5581,-0.5593,-0.5596,-0.565,-0.5655,-0.5672,-0.5676,-0.5682,-0.5692,-0.5693,-0.5757,-0.5757,0,0,0,-0.5553,-0.5552,-0.5567,-0.5588,-0.5598,-0.5594,-0.5598,-0.5653,-0.5658,-0.5677,-0.5683,-0.5693,-0.5694,-0.5757,-0.5757,-0.576,0,0,0,-0.5551,-0.5546,-0.5565,-0.5561,-0.5597,-0.5626,-0.5599,-0.5654,-0.5661,-0.5683,-0.5693,-0.5694,-0.5756,-0.5757,-0.5759,-0.5763,0,0,0,-0.5542,-0.5545,-0.5552,-0.556,-0.5583,-0.5625,-0.5634,-0.5656,-0.5664,-0.5692,-0.5694,-0.5756,-0.5757,-0.5758,-0.5762,-0.5778,0,0,0,-0.553,-0.5554,-0.5552,-0.5582,-0.5582,-0.5626,-0.5633,-0.5666,-0.569,-0.5693,-0.5756,-0.5757,-0.5758,-0.5761,-0.5777,-0.579,-0.5794,0,0,-0.5556,-0.5557,-0.5575,-0.5575,-0.5616,-0.5618,-0.566,-0.5691,-0.5702,-0.5738,-0.574,-0.5759,-0.5762,-0.5778,-0.582,-0.5823,0,0,0,-0.558,-0.5593,-0.5606,-0.5628,-0.5651,-0.5672,-0.5696,-0.5708,-0.5739,-0.5718,-0.5769,-0.5771,-0.5781,-0.5787,-0.579,-0.5799,-0.5759,-0.5759,-0.5759,-0.5605,-0.5617,-0.5648,-0.5666,-0.5687,-0.5712,-0.5731,-0.5751,-0.5757,-0.5769,-0.578,-0.5804,-0.5812,-0.5814,-0.5823,-0.5787,-0.5787,-0.5787,-0.5787,-0.5644,-0.5664,-0.5672,-0.5704,-0.5717,-0.5745,-0.5771,-0.5774,-0.5803,-0.5797,-0.5806,-0.5799,-0.5817,-0.5826,-0.5788,-0.5788,-0.5788,-0.5788,-0.5788,-0.5662,-0.5674,-0.5687,-0.572,-0.5744,-0.5762,-0.5789,-0.58,-0.5811,-0.582,-0.5833,-0.5833,-0.5835,-0.5825,-0.5825,-0.5825,-0.5825,-0.5825,-0.5826,-0.5676,-0.569,-0.5711,-0.5737,-0.5753,-0.5775,-0.5801,-0.5817,-0.5838,-0.5844,-0.5844,-0.585,-0.5816,-0.5808,-0.5827,-0.5827,-0.5826,-0.5826,-0.5826,-0.5713,-0.5706,-0.5738,-0.5754,-0.5786,-0.581,-0.5823,-0.5855,-0.587,-0.5883,-0.5887,-0.586,-0.5863,-0.586,-0.5854,-0.5884,-0.5884,-0.5884,-0.5884,-0.5728,-0.573,-0.5766,-0.579,-0.5815,-0.5831,-0.5868,-0.5888,-0.5909,-0.5919,-0.5916,-0.5908,-0.5905,-0.5909,-0.5906,-0.59,-0.5941,-0.5941,-0.5941,-0.5752,-0.5757,-0.5786,-0.5805,-0.5831,-0.5854,-0.5889,-0.5918,-0.594,-0.5944,-0.5927,-0.5925,-0.5912,-0.5907,-0.5911,-0.5906,-0.5895,0,0]},{"header":{"parameterUnit":"m.s-1","parameterCategory":1,"la1":30.2992,"la2":30.254,"lo1":-89.0895,"lo2":-89.0443,"dy":0.0025,"dx":0.0025,"nx":19,"ny":19,"refTime":"2026-03-13T09:00:00:Z","depth":0,"parameterNumber":3,"parameterNumberName":"V-component_of_WINDS"},"data":[0,0,0,2.3903,2.3904,2.3918,2.3918,2.395,2.3951,0,0,0,0,0,0,0,0,0,0,0,2.3907,2.3908,2.3903,2.3904,2.3918,2.3918,2.395,2.3951,0,0,0,0,0,0,0,0,0,0,0,2.3907,2.3907,2.3908,2.3904,2.3918,2.3918,2.395,2.3934,0,0,0,0,0,0,0,0,0,0,2.3918,2.393,2.3907,2.3908,2.3904,2.3918,2.3918,2.3933,2.3935,2.395,0,2.3965,0,2.3958,2.3954,2.3954,0,0,0,2.3897,2.3928,2.3925,2.3908,2.3904,2.3918,2.391,2.3934,2.3937,2.3952,2.3965,2.3966,2.3959,2.3954,2.3954,2.4058,2.4058,0,0,2.3897,2.3914,2.3923,2.3926,2.3925,2.3909,2.391,2.3935,2.395,2.3965,2.3966,2.3959,2.3954,2.3955,2.4057,2.4058,0,0,0,2.3898,2.3914,2.3909,2.3926,2.3927,2.391,2.3911,2.3949,2.3946,2.3967,2.396,2.3955,2.3955,2.4056,2.4057,2.4112,0,0,0,2.3898,2.3915,2.3909,2.392,2.3927,2.3938,2.3924,2.3944,2.3947,2.396,2.3955,2.3956,2.4055,2.4057,2.4108,2.4134,0,0,0,2.3903,2.3915,2.392,2.3921,2.3928,2.3937,2.3936,2.3944,2.3943,2.3954,2.3956,2.4055,2.4056,2.4105,2.4129,2.4165,0,0,0,2.3914,2.3969,2.3922,2.398,2.3928,2.3971,2.3935,2.3967,2.3983,2.3955,2.4055,2.4057,2.4104,2.4126,2.4162,2.4198,2.4215,0,0,2.3993,2.3979,2.4012,2.397,2.4026,2.3968,2.4032,2.403,2.4016,2.4045,2.4047,2.4109,2.4128,2.4164,2.4306,2.432,0,0,0,2.4043,2.4067,2.4078,2.4094,2.4094,2.4096,2.4083,2.4082,2.4106,2.4034,2.4133,2.4143,2.4164,2.418,2.4192,2.4207,2.4066,2.4066,2.4066,2.4178,2.4156,2.4209,2.419,2.4206,2.4192,2.4203,2.42,2.4173,2.4197,2.4205,2.4294,2.4313,2.4322,2.4339,2.4223,2.4224,2.4224,2.4224,2.429,2.4319,2.4284,2.4322,2.4299,2.4331,2.432,2.4301,2.4327,2.4286,2.4303,2.4258,2.4337,2.4351,2.4228,2.4227,2.4227,2.4226,2.4226,2.4374,2.4384,2.4383,2.4404,2.4423,2.4402,2.4429,2.4408,2.4388,2.4405,2.441,2.4409,2.4404,2.4409,2.4409,2.441,2.441,2.441,2.441,2.4461,2.4458,2.4483,2.4489,2.4496,2.4504,2.4491,2.4498,2.45,2.4482,2.4482,2.4453,2.435,2.4323,2.4415,2.4414,2.4414,2.4413,2.4413,2.4579,2.4549,2.4588,2.4596,2.4601,2.4621,2.4594,2.461,2.4613,2.4626,2.4594,2.4522,2.4506,2.4497,2.4474,2.46,2.46,2.46,2.46,2.4649,2.464,2.4674,2.4688,2.4699,2.4679,2.4723,2.4715,2.4701,2.4701,2.4681,2.465,2.4642,2.4631,2.4618,2.4597,2.4751,2.4751,2.4751,2.472,2.4711,2.4752,2.4738,2.4741,2.4743,2.4784,2.4802,2.478,2.4757,2.4701,2.4695,2.4645,2.463,2.4604,2.4585,2.4546,0,0]}]]